Weather History for Eureka, NU

Change the Weather History Date:

Thursday, November 8, 2012

  Actual Average Record
Temperature  
Mean Temperature -21 °F -  
Max Temperature -13 °F -20 °F 6 °F (1998)
Min Temperature -29 °F -33 °F -40 °F (2007)
Degree Days  
Heating Degree Days 86    
Moisture  
Dew Point -31 °F    
Average Humidity 63    
Maximum Humidity 70    
Minimum Humidity 43    
Precipitation  
Precipitation 0.00 in 0.00 in - ()
Sea Level Pressure  
Sea Level Pressure 30.07 in    
Wind  
Wind Speed 5 mph ()    
Max Wind Speed 10 mph    
Max Gust Speed -    
Visibility 7.8 miles    
Events Snow    
Averages and records for this station are not official NWS values.
T = Trace of Precipitation, MM = Missing Value Source: Averaged Metar Reports

Daily Weather History Graph

Daily Weather History Graph

Search for Another Location

Airport:

Trip Planner

Search our weather history database for the weather conditions in past years. The results will help you decide how hot, cold, wet, or windy it might be!

Date:

Astronomy

Dec. 31, 1969 Rise Set
Actual Time Sun does not rise Sun does not rise
Civil Twilight 10:55 AM CST 11:59 AM CST
Nautical Twilight 7:16 AM CST 3:35 PM CST
Astronomical Twilight 4:52 AM CST 5:58 PM CST
Moon No Moon Rise 2:24 PM CST (11/8)
Length of Visible Light 1h 04m
Length of Day
0h 00m
Waning Crescent, 32% of the Moon is Illuminated
Nov 8
Waning Crescent
Nov 13
New
Nov 20
First Quarter
Nov 28
Full
Dec 6
Last Quarter

Hourly Weather History & Observations

Time (CST) Temp. Windchill Dew Point Humidity Pressure Visibility Wind Dir Wind Speed Gust Speed Precip Events Conditions
12:00 AM -24 °F - -33 °F 45% 30.10 in 5 mi SE 8.1 mph - - Snow Snow
12:00 AM -23.8 °F -43.2 °F -32.8 °F 63% 30.10 in 5.0 mi SE 8.1 mph - N/A   Ice Crystals
1:00 AM -27.4 °F -44.1 °F -36.4 °F 62% 30.10 in 15.0 mi SE 5.8 mph - N/A   Clear
2:00 AM -27.4 °F -45.9 °F -36.4 °F 62% 30.10 in 10.0 mi SE 6.9 mph - N/A   Clear
3:00 AM -25.6 °F -41.9 °F -32.8 °F 69% 30.11 in 6.0 mi SE 5.8 mph - N/A   Ice Crystals
4:00 AM -25.6 °F -39.8 °F -32.8 °F 69% 30.10 in 5.0 mi SSE 4.6 mph - N/A   Ice Crystals
5:00 AM -27.4 °F -41.9 °F -36.4 °F 62% 30.10 in 5.0 mi SSE 4.6 mph - N/A   Ice Crystals
6:00 AM -24 °F - -32 °F 50% 30.09 in 5 mi SE 3.5 mph - - Snow Snow
6:00 AM -23.8 °F -37.7 °F -31.0 °F 69% 30.09 in 5.0 mi SSE 4.6 mph - N/A   Ice Crystals
7:00 AM -25.6 °F -43.8 °F -32.8 °F 69% 30.08 in 7.0 mi SE 6.9 mph - N/A   Clear
8:00 AM -22.0 °F - -29.2 °F 69% 30.08 in 5.0 mi Calm Calm - N/A   Ice Crystals
9:00 AM -25.6 °F - -36.4 °F 57% 30.07 in 7.0 mi Calm Calm - N/A   Partly Cloudy
10:00 AM -22.0 °F -35.6 °F -31.0 °F 63% 30.07 in 7.0 mi SE 4.6 mph - N/A   Partly Cloudy
11:00 AM -23.8 °F -39.8 °F -31.0 °F 69% 30.07 in 4.0 mi SE 5.8 mph - N/A   Ice Crystals
12:00 PM -23 °F - -33 °F 43% 30.06 in 6 mi Calm Calm - - Snow Snow
12:00 PM -23.8 °F - -32.8 °F 63% 30.06 in 6.0 mi SSE 2.3 mph - N/A   Ice Crystals
2:00 PM -23.8 °F -41.6 °F -32.8 °F 63% 30.05 in 8.0 mi SE 6.9 mph - N/A   Clear
3:00 PM -23.8 °F -43.2 °F -31.0 °F 69% 30.05 in 10.0 mi SE 8.1 mph - N/A   Clear
4:00 PM -20.2 °F -38.8 °F -29.2 °F 63% 30.04 in 10.0 mi SSE 8.1 mph - N/A   Clear
5:00 PM -20.2 °F -35.5 °F -29.2 °F 63% 30.05 in 8.0 mi SE 5.8 mph - N/A   Clear
6:00 PM -18 °F - -25 °F 54% 30.04 in 10 mi SE 6.9 mph - - Snow Snow
6:00 PM -18.4 °F -35.1 °F -25.6 °F 70% 30.04 in 10.0 mi SE 6.9 mph - N/A   Clear
7:00 PM -16.6 °F -34.4 °F -23.8 °F 70% 30.03 in 10.0 mi SE 8.1 mph - N/A   Clear
8:00 PM -13.0 °F -32.4 °F -20.2 °F 70% 30.02 in 12.0 mi SE 10.4 mph - N/A   Clear
9:00 PM -13.0 °F -32.4 °F -22.0 °F 64% 30.02 in 15.0 mi SE 10.4 mph - N/A Snow Low Drifting Snow